DW4847 Weather Reports


Display with metric or nautical units.
time (UTC)temp
F
wind
direction
speed
MPH
gust
MPH
rain 1hr
in
rain 24hr
in
rain mn
in
humidity
%
barometer
mb
20260509141551 42 182 0.0 1.0 0.02 0.26 0.26 92 1012.1
20260509141045 42 181 0.0 1.0 0.03 0.26 0.26 92 1012.2
20260509140556 42 182 0.0 1.0 0.02 0.25 0.25 92 1012.2
20260509140040 42 182 0.0 2.0 0.02 0.25 0.25 92 1012.2
20260509135535 42 183 0.0 2.0 0.01 0.24 0.24 92 1012.2
20260509135049 42 196 0.0 2.0 0.01 0.24 0.24 92 1012.2
20260509134532 42 229 0.0 1.0 0.01 0.24 0.24 92 1012.2
20260509134047 42 232 0.0 1.0 0.01 0.24 0.24 93 1012.1
20260509133532 41 205 0.0 2.0 0.01 0.24 0.24 93 1012.2
20260509133025 41 209 0.0 2.0 0.02 0.24 0.24 92 1012.3
20260509132531 41 211 0.0 1.0 0.02 0.24 0.24 92 1012.4
20260509132026 41 211 0.0 0.0 0.02 0.24 0.24 93 1012.5
20260509131541 41 211 0.0 1.0 0.02 0.24 0.24 93 1012.5
20260509131027 41 221 0.0 1.0 0.01 0.23 0.23 92 1012.6
20260509130601 41 229 0.0 0.0 0.01 0.23 0.23 93 1012.5
20260509130034 40 231 0.0 0.0 0.02 0.23 0.23 93 1012.6
20260509125608 40 234 0.0 1.0 0.02 0.23 0.23 93 1012.7
20260509125053 40 234 0.0 1.0 0.02 0.23 0.23 93 1012.5
20260509124525 40 234 0.0 2.0 0.02 0.23 0.23 93 1012.6
20260509124040 40 236 0.0 2.0 0.02 0.23 0.23 93 1012.7
20260509123525 40 268 0.0 0.0 0.02 0.23 0.23 93 1012.5
20260509123040 40 268 0.0 0.0 0.01 0.22 0.22 93 1012.6
20260509122526 40 271 0.0 1.0 0.01 0.22 0.22 93 1012.7
20260509122037 40 287 0.0 0.0 0.01 0.22 0.22 93 1012.6
20260509121551 40 290 0.0 0.0 0.01 0.22 0.22 93 1012.6
20260509121048 40 290 0.0 0.0 0.01 0.22 0.22 93 1012.6
20260509120530 40 291 0.0 0.0 0.01 0.22 0.22 93 1012.6
20260509120045 40 291 0.0 0.0 0.00 0.21 0.21 93 1012.7
20260509115558 40 291 0.0 0.0 0.01 0.21 0.21 93 1012.6
20260509115044 40 291 0.0 0.0 0.01 0.21 0.21 93 1012.7
20260509114537 39 291 0.0 0.0 0.02 0.21 0.21 93 1012.7
20260509114053 39 291 0.0 0.0 0.02 0.21 0.21 93 1012.7
20260509113547 39 291 0.0 0.0 0.02 0.21 0.21 93 1012.7
20260509113031 39 291 0.0 0.0 0.03 0.21 0.21 93 1012.8
20260509112525 39 291 0.0 0.0 0.04 0.21 0.21 93 1012.8
20260509112040 39 291 0.0 0.0 0.04 0.21 0.21 93 1012.8
20260509111525 39 292 0.0 0.0 0.05 0.21 0.21 93 1012.9
20260509111039 39 293 0.0 0.0 0.05 0.21 0.21 93 1013.0
20260509110525 39 293 0.0 0.0 0.06 0.21 0.21 93 1013.0
20260509110055 39 293 0.0 0.0 0.07 0.21 0.21 93 1013.0
20260509105529 39 293 0.0 0.0 0.07 0.20 0.20 93 1013.1
20260509105044 38 293 0.0 0.0 0.07 0.20 0.20 93 1013.0
20260509104550 38 293 0.0 0.0 0.07 0.19 0.19 93 1013.1
20260509104112 38 293 0.0 0.0 0.08 0.19 0.19 93 1013.2
20260509103536 38 293 0.0 0.0 0.09 0.19 0.19 93 1013.2
20260509103023 38 292 0.0 0.0 0.09 0.18 0.18 93 1013.4
20260509102606 38 293 0.0 0.0 0.09 0.17 0.17 93 1013.3
20260509102029 38 293 0.0 0.0 0.09 0.17 0.17 92 1013.3
20260509101544 37 293 0.0 0.0 0.09 0.16 0.16 93 1013.2
20260509101055 37 293 0.0 0.0 0.09 0.16 0.16 92 1013.2
20260509100549 37 293 0.0 0.0 0.09 0.15 0.15 92 1013.1
20260509100034 37 293 0.0 0.0 0.08 0.14 0.14 92 1013.0
20260509095529 37 293 0.0 0.0 0.08 0.13 0.13 92 1013.0
20260509095043 37 293 0.0 0.0 0.08 0.13 0.13 92 1012.9
20260509094526 37 293 0.0 0.0 0.08 0.12 0.12 92 1013.0
20260509094037 37 293 0.0 0.0 0.07 0.11 0.11 92 1013.0
20260509093552 37 293 0.0 0.0 0.07 0.10 0.10 92 1013.0
20260509093037 36 293 0.0 0.0 0.06 0.09 0.09 92 1012.9
20260509092531 36 293 0.0 0.0 0.06 0.08 0.08 92 1013.0
20260509092047 36 293 0.0 0.0 0.06 0.08 0.08 92 1013.0
20260509091534 36 293 0.0 0.0 0.06 0.07 0.07 92 1012.9
20260509091048 36 293 0.0 0.0 0.06 0.07 0.07 92 1012.8
20260509090602 36 293 0.0 0.0 0.06 0.06 0.06 92 1012.7
20260509090025 36 293 0.0 0.0 0.06 0.06 0.06 92 1012.7
20260509085539 36 293 0.0 0.0 0.05 0.05 0.05 91 1012.9
20260509085026 36 292 0.0 0.0 0.05 0.05 0.05 91 1012.9
20260509084540 36 293 0.0 0.0 0.04 0.04 0.04 91 1012.9
20260509084027 35 296 0.0 1.0 0.04 0.04 0.04 91 1013.0
20260509083610 35 296 0.0 1.0 0.03 0.03 0.03 91 1013.0
20260509083034 35 296 0.0 0.0 0.03 0.03 0.03 91 1012.9
20260509082549 35 296 0.0 0.0 0.02 0.02 0.02 91 1012.9
20260509082032 35 296 0.0 0.0 0.02 0.02 0.02 91 1012.9
20260509081546 35 296 0.0 0.0 0.01 0.01 0.01 91 1012.8
20260509081054 35 296 0.0 0.0 0.00 0.00 0.00 91 1012.8
20260509080548 34 296 0.0 0.0 0.00 0.00 0.00 91 1012.7
20260509080032 34 296 0.0 0.0 0.00 0.00 0.00 91 1012.5
20260509075526 34 296 0.0 0.0 0.00 0.00 0.00 91 1012.4
20260509075032 34 296 0.0 0.0 0.00 0.00 0.00 91 1012.4
20260509074526 34 296 0.0 0.0 0.00 0.00 0.00 91 1012.4
20260509074040 34 296 0.0 0.0 0.00 0.00 0.00 91 1012.3
20260509073524 33 296 0.0 0.0 0.00 0.00 0.00 91 1012.3
20260509073038 33 296 0.0 0.0 0.00 0.00 0.00 91 1012.3
20260509072524 33 296 0.0 0.0 0.00 0.00 0.00 91 1012.4
20260509072039 33 296 0.0 0.0 0.00 0.00 0.00 91 1012.4
20260509071525 32 296 0.0 0.0 0.00 0.00 0.00 91 1012.5
20260509071109 32 296 0.0 0.0 0.00 0.00 0.00 91 1012.4
20260509070534 32 296 0.0 0.0 0.00 0.00 0.00 90 1012.4
20260509070046 32 296 0.0 0.0 0.00 0.00 0.00 90 1012.4
20260509065531 32 296 0.0 0.0 0.00 0.00 0.00 90 1012.4
20260509065026 32 296 0.0 0.0 0.00 0.00 0.00 90 1012.4
20260509064532 32 296 0.0 0.0 0.00 0.00 0.00 90 1012.5
20260509064027 32 296 0.0 0.0 0.00 0.00 0.00 89 1012.5
20260509063541 32 296 0.0 0.0 0.00 0.00 0.00 89 1012.5
20260509063046 32 296 0.0 0.0 0.00 0.00 0.00 89 1012.6
20260509062539 32 296 0.0 0.0 0.00 0.00 0.00 89 1012.6
20260509062034 32 296 0.0 0.0 0.00 0.00 0.00 89 1012.6
20260509061603 32 296 0.0 0.0 0.00 0.00 0.00 89 1012.6
20260509061027 32 296 0.0 1.0 0.00 0.00 0.00 89 1012.7
20260509060538 32 296 0.0 1.0 0.00 0.00 0.00 89 1012.8
20260509060024 32 296 0.0 0.0 0.00 0.00 0.00 89 1012.7
20260509055536 32 296 0.0 0.0 0.00 0.00 0.00 89 1012.7
20260509055023 32 296 0.0 0.0 0.00 0.00 0.00 89 1012.8
20260509054536 32 296 0.0 0.0 0.00 0.00 0.00 89 1012.9
20260509054030 32 296 0.0 0.0 0.00 0.00 0.00 89 1012.9
20260509053537 32 296 0.0 0.0 0.00 0.00 0.00 89 1012.9
20260509053032 32 296 0.0 0.0 0.00 0.00 0.00 88 1012.9
20260509052546 32 296 0.0 0.0 0.00 0.00 0.00 88 1012.9
20260509052032 32 296 0.0 0.0 0.00 0.00 0.00 88 1012.8
20260509051547 32 296 0.0 0.0 0.00 0.00 0.00 88 1012.7
20260509051034 32 296 0.0 0.0 0.00 0.00 0.00 88 1012.8
20260509050529 32 296 0.0 0.0 0.00 0.00 0.00 88 1012.8
20260509050104 32 296 0.0 0.0 0.00 0.00 0.00 87 1012.8
20260509045527 32 296 0.0 0.0 0.00 0.00 0.00 87 1012.7
20260509045021 32 296 0.0 0.0 0.00 0.00 0.00 87 1012.7
20260509044527 32 296 0.0 0.0 0.00 0.00 0.00 87 1012.6
20260509044021 32 296 0.0 0.0 0.00 0.00 0.00 87 1012.6
20260509043555 33 296 0.0 0.0 0.00 0.00 0.00 87 1012.7
20260509043045 33 296 0.0 0.0 0.00 0.00 0.00 87 1012.8
20260509042540 33 296 0.0 0.0 0.00 0.00 0.00 87 1012.7
20260509042024 33 296 0.0 0.0 0.00 0.00 0.00 87 1012.7
20260509041600 33 296 0.0 0.0 0.00 0.00 0.00 86 1012.7
20260509041032 33 296 0.0 0.0 0.00 0.00 0.00 86 1012.7
20260509040537 33 296 0.0 0.0 0.00 0.00 0.00 86 1012.7
20260509040048 33 296 0.0 0.0 0.00 0.00 0.00 86 1012.7
20260509035601 33 296 0.0 0.0 0.00 0.00 0.00 86 1012.7
20260509035035 33 296 0.0 0.0 0.00 0.00 0.00 86 1012.6
20260509034522 33 296 0.0 0.0 0.00 0.00 0.00 85 1012.7
20260509034036 34 296 0.0 0.0 0.00 0.00 0.00 85 1012.6
20260509033523 34 296 0.0 0.0 0.00 0.00 0.00 85 1012.7
20260509033034 34 296 0.0 0.0 0.00 0.00 0.00 85 1012.6
20260509032549 34 296 0.0 0.0 0.00 0.00 0.00 84 1012.6
20260509032035 34 296 0.0 0.0 0.00 0.00 0.00 84 1012.5
20260509031529 34 296 0.0 0.0 0.00 0.00 0.00 84 1012.5
20260509031036 35 296 0.0 0.0 0.00 0.00 0.00 84 1012.5
20260509030530 35 296 0.0 0.0 0.00 0.00 0.00 83 1012.5
20260509030044 35 296 0.0 0.0 0.00 0.00 0.00 83 1012.4
20260509025528 35 296 0.0 0.0 0.00 0.00 0.00 83 1012.3
20260509025022 35 296 0.0 0.0 0.00 0.00 0.00 83 1012.4
20260509024523 35 296 0.0 0.0 0.00 0.00 0.00 82 1012.4
20260509024039 35 296 0.0 0.0 0.00 0.00 0.00 82 1012.4
20260509023525 35 296 0.0 0.0 0.00 0.00 0.00 82 1012.3
20260509022544 36 296 0.0 0.0 0.00 0.00 0.00 81 1012.3
20260509022029 36 296 0.0 0.0 0.00 0.00 0.00 81 1012.2
20260509021524 36 296 0.0 0.0 0.00 0.00 0.00 80 1012.1
20260509021038 36 296 0.0 0.0 0.00 0.00 0.00 80 1012.0
20260509020524 37 296 0.0 0.0 0.00 0.00 0.00 79 1012.0
20260509020038 37 296 0.0 0.0 0.00 0.00 0.00 79 1012.0
20260509015525 37 296 0.0 0.0 0.00 0.00 0.00 79 1012.0
20260509015100 37 296 0.0 0.0 0.00 0.00 0.00 79 1012.0
20260509014533 38 296 0.0 0.0 0.00 0.00 0.00 78 1011.9
20260509014049 38 296 0.0 0.0 0.00 0.00 0.00 77 1011.9
20260509013534 38 296 0.0 0.0 0.00 0.00 0.00 77 1011.9
20260509013049 38 296 0.0 0.0 0.00 0.00 0.00 76 1011.7
20260509012523 39 296 0.0 0.0 0.00 0.00 0.00 76 1011.8
20260509012058 39 296 0.0 1.0 0.00 0.00 0.00 75 1011.6
20260509011548 39 296 0.0 1.0 0.00 0.00 0.00 74 1011.5
20260509011031 40 297 0.0 0.0 0.00 0.00 0.00 74 1011.4
20260509010546 40 297 0.0 0.0 0.00 0.00 0.00 73 1011.4
20260509010031 41 297 0.0 0.0 0.00 0.00 0.00 72 1011.2
20260509005526 41 297 0.0 0.0 0.00 0.00 0.00 72 1011.1
20260509005033 41 297 0.0 0.0 0.00 0.00 0.00 72 1011.0
20260509004527 42 297 0.0 0.0 0.00 0.00 0.00 71 1011.0
20260509004038 42 297 0.0 0.0 0.00 0.00 0.00 71 1010.9
20260509003524 42 297 0.0 0.0 0.00 0.00 0.00 69 1010.8
20260509003039 43 297 0.0 0.0 0.00 0.00 0.00 69 1010.8
20260509002526 43 297 0.0 1.0 0.00 0.00 0.00 68 1010.6
20260509002041 44 297 0.0 1.0 0.00 0.00 0.00 68 1010.6
20260509001528 45 297 0.0 1.0 0.00 0.00 0.00 67 1010.4
20260509001111 45 298 0.0 0.0 0.00 0.00 0.00 66 1010.4
20260509000536 46 298 0.0 1.0 0.00 0.00 0.00 62 1010.5
20260509000051 46 297 0.0 1.0 0.00 0.00 0.00 63 1010.4
20260508235538 47 297 0.0 1.0 0.00 0.00 0.00 61 1010.4
20260508235053 47 297 0.0 4.0 0.00 0.00 0.00 59 1010.2
20260508234546 47 297 1.0 4.0 0.00 0.00 0.00 58 1010.2
20260508234101 47 259 1.0 3.0 0.00 0.00 0.00 58 1010.0
20260508233525 48 263 1.0 3.0 0.00 0.00 0.00 57 1010.0
20260508233057 48 219 1.0 2.0 0.00 0.00 0.00 56 1010.0
20260508232550 48 211 0.0 2.0 0.00 0.00 0.00 57 1010.0
20260508232037 48 325 0.0 4.0 0.00 0.00 0.00 57 1010.0
20260508231530 48 254 1.0 4.0 0.00 0.00 0.00 56 1009.9
20260508231106 49 259 1.0 8.0 0.00 0.00 0.00 54 1009.9
20260508230531 49 282 2.0 8.0 0.00 0.00 0.00 54 1009.9
20260508230045 49 43 1.0 7.0 0.00 0.00 0.00 54 1009.9
20260508225539 49 221 3.0 8.0 0.00 0.00 0.00 52 1009.9
20260508225026 49 215 2.0 8.0 0.00 0.00 0.00 53 1010.0
20260508224540 49 286 1.0 4.0 0.00 0.00 0.00 53 1009.8
20260508224027 49 305 1.0 6.0 0.00 0.00 0.00 54 1009.8
20260508223541 49 307 2.0 9.0 0.00 0.00 0.00 54 1009.7
20260508223034 50 234 1.0 9.0 0.00 0.00 0.00 53 1009.7
20260508222540 50 312 3.0 5.0 0.00 0.00 0.00 53 1009.6
20260508222036 50 183 2.0 6.0 0.00 0.00 0.00 52 1009.6
20260508221550 50 172 3.0 6.0 0.00 0.00 0.00 53 1009.6
20260508221035 50 320 0.0 8.0 0.00 0.00 0.00 53 1009.6
20260508220549 50 282 3.0 8.0 0.00 0.00 0.00 52 1009.6
20260508220035 51 355 2.0 6.0 0.00 0.00 0.00 52 1009.7
20260508215529 51 219 3.0 6.0 0.00 0.00 0.00 51 1009.5
20260508215035 51 196 2.0 5.0 0.00 0.00 0.00 51 1009.5
20260508214530 51 223 2.0 9.0 0.00 0.00 0.00 52 1009.5
20260508214044 51 278 2.0 8.0 0.00 0.00 0.00 54 1009.6
20260508213531 51 246 1.0 8.0 0.00 0.00 0.00 56 1009.6
20260508213101 51 185 2.0 6.0 0.00 0.00 0.00 55 1009.6
20260508212535 50 232 2.0 6.0 0.00 0.00 0.00 55 1009.7
20260508212041 50 341 1.0 4.0 0.00 0.00 0.00 55 1009.6
20260508211556 50 202 1.0 4.0 0.00 0.00 0.00 58 1009.6
20260508211028 49 240 0.0 2.0 0.00 0.00 0.00 59 1009.5
20260508210534 49 317 1.0 4.0 0.00 0.00 0.00 60 1009.6
20260508210030 49 197 2.0 5.0 0.00 0.00 0.00 60 1009.6
20260508205544 49 232 2.0 5.0 0.00 0.00 0.00 61 1009.7
20260508205028 49 203 1.0 8.0 0.00 0.00 0.00 62 1009.7
20260508204542 49 328 3.0 8.0 0.00 0.00 0.00 60 1009.8
20260508204058 49 227 2.0 5.0 0.00 0.00 0.00 60 1009.7
20260508203611 50 307 1.0 4.0 0.00 0.00 0.00 59 1009.7
20260508203035 50 159 1.0 5.0 0.00 0.00 0.00 58 1009.7
20260508202529 50 222 3.0 8.0 0.00 0.00 0.00 58 1009.7
20260508202035 50 325 2.0 8.0 0.00 0.00 0.00 61 1009.6
20260508201530 49 338 2.0 6.0 0.00 0.00 0.00 62 1009.6
20260508201045 49 236 2.0 6.0 0.00 0.00 0.00 62 1009.7
20260508200551 49 257 1.0 5.0 0.00 0.00 0.00 63 1009.7
20260508200059 49 222 1.0 6.0 0.00 0.00 0.00 64 1009.8
20260508195532 50 311 3.0 7.0 0.00 0.00 0.00 63 1009.6
20260508195048 49 209 3.0 13.0 0.00 0.00 0.00 62 1009.6
20260508194533 49 252 4.0 13.0 0.00 0.00 0.00 62 1009.6
20260508194026 49 336 2.0 6.0 0.00 0.00 0.00 68 1009.7
20260508193540 48 326 2.0 5.0 0.00 0.00 0.00 67 1009.8
20260508193037 47 216 1.0 5.0 0.00 0.00 0.00 70 1009.8
20260508192531 47 236 2.0 7.0 0.00 0.00 0.00 69 1009.8
20260508192045 47 329 1.0 7.0 0.00 0.00 0.00 74 1009.9
20260508191531 46 295 1.0 5.0 0.00 0.00 0.00 74 1010.0
20260508191025 45 211 1.0 4.0 0.00 0.00 0.00 76 1010.0
20260508190540 44 60 1.0 6.0 0.00 0.00 0.00 79 1010.1
20260508190026 44 304 2.0 6.0 0.00 0.00 0.00 76 1010.3
20260508185540 44 302 1.0 6.0 0.00 0.00 0.00 74 1010.3
20260508185027 44 229 1.0 4.0 0.00 0.00 0.00 72 1010.4
20260508184522 44 234 1.0 4.0 0.00 0.00 0.00 72 1010.3
20260508184028 45 321 1.0 4.0 0.00 0.00 0.00 72 1010.3
20260508183542 45 337 2.0 4.0 0.00 0.00 0.00 70 1010.4
20260508183036 45 175 1.0 4.0 0.00 0.00 0.00 68 1010.3
20260508182523 45 279 1.0 5.0 0.00 0.00 0.00 67 1010.3
20260508182037 45 230 2.0 5.0 0.00 0.00 0.00 66 1010.3
20260508181524 45 218 1.0 3.0 0.00 0.00 0.00 68 1010.2
20260508181033 45 306 1.0 3.0 0.00 0.00 0.00 68 1010.2
20260508180529 45 257 1.0 4.0 0.00 0.00 0.00 69 1010.1
20260508180032 45 269 1.0 3.0 0.00 0.00 0.00 69 1010.1
20260508175525 44 188 2.0 3.0 0.00 0.00 0.00 68 1010.1
20260508175040 44 233 1.0 3.0 0.00 0.00 0.00 69 1010.1
20260508174544 44 251 1.0 3.0 0.00 0.00 0.00 69 1010.2
20260508174036 44 220 0.0 8.0 0.00 0.00 0.00 70 1010.3
20260508173550 45 219 1.0 8.0 0.00 0.00 0.00 68 1010.3
20260508173035 45 320 2.0 7.0 0.00 0.00 0.00 68 1010.3
20260508172549 45 297 2.0 7.0 0.00 0.00 0.00 68 1010.3
20260508172024 46 268 1.0 9.0 0.00 0.00 0.00 65 1010.3
20260508171528 46 218 3.0 9.0 0.00 0.00 0.00 64 1010.3
20260508171044 46 244 2.0 5.0 0.00 0.00 0.00 64 1010.2
20260508170536 47 219 2.0 7.0 0.00 0.00 0.00 64 1010.2
20260508170023 47 297 2.0 7.0 0.00 0.00 0.00 66 1010.2
20260508165557 47 223 1.0 6.0 0.00 0.00 0.00 65 1010.1
20260508165050 47 228 2.0 8.0 0.00 0.00 0.00 62 1010.1
20260508164524 48 305 3.0 8.0 0.00 0.00 0.00 58 1010.1
20260508164025 49 219 3.0 9.0 0.00 0.00 0.00 53 1009.8
20260508163539 50 5 4.0 6.0 0.00 0.00 0.00 49 1009.8
20260508163033 51 300 2.0 8.0 0.00 0.00 0.00 48 1009.5
20260508162539 51 257 2.0 7.0 0.00 0.00 0.00 49 1009.4
20260508162031 52 215 1.0 6.0 0.00 0.00 0.00 49 1009.4
20260508161545 52 304 1.0 8.0 0.00 0.00 0.00 48 1009.3
20260508161032 52 294 1.0 15.0 0.00 0.00 0.00 48 1009.3
20260508160546 52 276 5.0 15.0 0.00 0.00 0.00 46 1009.2
20260508160029 53 218 3.0 8.0 0.00 0.00 0.00 48 1009.1
20260508155523 53 219 4.0 8.0 0.00 0.00 0.00 44 1009.3
20260508155038 53 229 2.0 4.0 0.00 0.00 0.00 47 1009.1
20260508154541 53 142 2.0 7.0 0.00 0.00 0.00 46 1009.2
20260508154035 52 213 3.0 7.0 0.00 0.00 0.00 52 1009.3
20260508153549 52 340 2.0 5.0 0.00 0.00 0.00 51 1009.4
20260508153033 51 209 2.0 9.0 0.00 0.00 0.00 51 1009.7
20260508152548 51 355 4.0 9.0 0.00 0.00 0.00 51 1009.7
20260508152043 50 134 2.0 10.0 0.00 0.00 0.00 54 1009.6
20260508151528 50 207 2.0 10.0 0.00 0.00 0.00 52 1009.7
20260508151043 51 216 2.0 7.0 0.00 0.00 0.00 52 1009.6
20260508150546 50 185 4.0 10.0 0.00 0.00 0.00 53 1009.4
20260508145526 50 277 2.0 7.0 0.00 0.00 0.00 55 1009.7
20260508145040 49 288 1.0 7.0 0.00 0.00 0.00 58 1009.7
20260508144525 48 311 3.0 8.0 0.00 0.00 0.00 57 1009.8
20260508144058 48 344 2.0 8.0 0.00 0.00 0.00 58 1009.8
20260508143531 47 226 3.0 6.0 0.00 0.00 0.00 59 1009.7
20260508143045 47 355 2.0 7.0 0.00 0.00 0.00 59 1009.5
20260508142530 47 265 2.0 7.0 0.00 0.00 0.00 60 1009.5
20260508142024 47 355 2.0 7.0 0.00 0.00 0.00 59 1009.5